User: anonymous   Login
Location: Bridgewater Hill Observatory
(43.5992°N, 72.6989°W)
Time: 23:43:22
(UTC-04:00)
Language:

Cosmos 1452 Rocket - Orbit

View from above orbital plane
View from above orbital plane
View from above satellite
View from above satellite

Ground track
Ground track

The orbit data is extracted from the following two-line orbital elements,

1 13992U 83031B   17176.56707642 -.00000042 +00000-0 -55040-5 0  9995
2 13992 074.0531 351.7742 0005546 323.3963 069.1640 14.36088469789722
Epoch (UTC): 25 June 2017 13:36:35
Eccentricity: 0.0005546
inclination: 74.0531°
perigee height: 767 km
apogee height: 775 km
right ascension of ascending node: 351.7742°
argument of perigee: 323.3963°
revolutions per day: 14.36088469
mean anomaly at epoch: 69.1640°
orbit number at epoch: 78972

The dashed part of the orbit path shows where the satellite is in the earth's shadow,  

DLR